| time (UTC) | temp F | wind direction | speed knots | gust knots | rain 1hr in | rain 24hr in | rain mn in | humidity % | barometer mb |
| 20260506050824 | 79 | 163 | 0.9 | 5.2 | 0.00 | 0.00 | 0.00 | 81 | 1010.2 |
| 20260506044824 | 79 | 223 | 0.9 | 4.3 | 0.00 | 0.00 | 0.00 | 80 | 1010.2 |
| 20260506043824 | 79 | 171 | 1.7 | 2.6 | 0.00 | 0.00 | 0.00 | 80 | 1010.0 |
| 20260506042834 | 79 | 94 | 2.6 | 10.4 | 0.00 | 0.00 | 0.00 | 80 | 1009.9 |
| 20260506041834 | 79 | 123 | 1.7 | 10.4 | 0.00 | 0.00 | 0.00 | 79 | 1009.5 |
| 20260506040834 | 79 | 155 | 2.6 | 7.8 | 0.00 | 0.00 | 0.00 | 79 | 1009.5 |
| 20260506035835 | 80 | 138 | 4.3 | 6.1 | 0.00 | 0.00 | 0.00 | 79 | 1009.7 |
| 20260506034834 | 80 | 98 | 2.6 | 9.6 | 0.00 | 0.00 | 0.00 | 78 | 1009.7 |
| 20260506033834 | 80 | 120 | 3.5 | 8.7 | 0.00 | 0.00 | 0.00 | 78 | 1009.5 |
| 20260506032834 | 80 | 119 | 2.6 | 8.7 | 0.00 | 0.00 | 0.00 | 77 | 1009.5 |
| 20260506031834 | 80 | 121 | 2.6 | 6.1 | 0.00 | 0.00 | 0.00 | 77 | 1009.5 |
| 20260506030834 | 81 | 200 | 1.7 | 6.1 | 0.00 | 0.00 | 0.00 | 77 | 1009.4 |
| 20260506025834 | 81 | 130 | 0.0 | 4.3 | 0.00 | 0.00 | 0.00 | 76 | 1009.4 |
| 20260506024834 | 81 | 153 | 0.9 | 2.6 | 0.00 | 0.00 | 0.00 | 76 | 1009.4 |
| 20260506023834 | 81 | 142 | 0.0 | 3.5 | 0.00 | 0.00 | 0.00 | 76 | 1009.3 |
| 20260506022833 | 81 | 98 | 1.7 | 3.5 | 0.00 | 0.00 | 0.00 | 76 | 1009.0 |
| 20260506021833 | 81 | 135 | 0.0 | 5.2 | 0.00 | 0.00 | 0.00 | 75 | 1008.9 |
| 20260506020833 | 82 | 153 | 0.9 | 4.3 | 0.00 | 0.00 | 0.00 | 75 | 1008.7 |
| 20260506015833 | 82 | 120 | 0.9 | 3.5 | 0.00 | 0.00 | 0.00 | 75 | 1008.6 |
| 20260506014833 | 82 | 146 | 0.9 | 3.5 | 0.00 | 0.00 | 0.00 | 74 | 1008.5 |
| 20260506013833 | 82 | 155 | 0.0 | 2.6 | 0.00 | 0.00 | 0.00 | 74 | 1008.2 |
| 20260506012833 | 82 | 158 | 0.9 | 4.3 | 0.00 | 0.00 | 0.00 | 74 | 1008.0 |
| 20260506011833 | 82 | 134 | 3.5 | 6.1 | 0.00 | 0.00 | 0.00 | 73 | 1008.0 |
| 20260506010833 | 82 | 177 | 1.7 | 6.1 | 0.00 | 0.00 | 0.00 | 73 | 1007.8 |
| 20260506005833 | 83 | 117 | 0.0 | 5.2 | 0.00 | 0.00 | 0.00 | 72 | 1007.8 |
| 20260506004833 | 83 | 188 | 0.0 | 4.3 | 0.00 | 0.00 | 0.00 | 72 | 1007.6 |
| 20260506003903 | 83 | 196 | 1.7 | 4.3 | 0.00 | 0.00 | 0.00 | 72 | 1007.6 |
| 20260506002833 | 84 | 160 | 0.0 | 8.7 | 0.00 | 0.00 | 0.00 | 71 | 1007.5 |
| 20260506001832 | 84 | 172 | 1.7 | 8.7 | 0.00 | 0.00 | 0.00 | 71 | 1007.6 |
| 20260506000832 | 84 | 170 | 4.3 | 7.0 | 0.00 | 0.00 | 0.00 | 70 | 1007.5 |
| 20260505235832 | 85 | 85 | 0.9 | 6.1 | 0.00 | 0.00 | 0.00 | 70 | 1007.5 |
| 20260505234832 | 85 | 129 | 3.5 | 7.8 | 0.00 | 0.00 | 0.00 | 69 | 1007.4 |
| 20260505233832 | 85 | 171 | 1.7 | 7.0 | 0.00 | 0.00 | 0.00 | 69 | 1007.5 |
| 20260505232832 | 86 | 121 | 2.6 | 8.7 | 0.00 | 0.00 | 0.00 | 68 | 1007.5 |
| 20260505231832 | 86 | 215 | 0.0 | 5.2 | 0.00 | 0.00 | 0.00 | 68 | 1007.5 |
| 20260505230832 | 86 | 245 | 3.5 | 4.3 | 0.00 | 0.00 | 0.00 | 67 | 1007.5 |
| 20260505225832 | 86 | 210 | 0.9 | 4.3 | 0.00 | 0.00 | 0.00 | 66 | 1007.5 |
| 20260505224832 | 87 | 190 | 0.9 | 8.7 | 0.00 | 0.00 | 0.00 | 66 | 1007.6 |
| 20260505223832 | 87 | 250 | 1.7 | 5.2 | 0.00 | 0.00 | 0.00 | 66 | 1007.6 |
| 20260505222832 | 87 | 181 | 2.6 | 6.1 | 0.00 | 0.00 | 0.00 | 66 | 1007.4 |
| 20260505221832 | 88 | 251 | 0.0 | 9.6 | 0.00 | 0.00 | 0.00 | 66 | 1007.4 |
| 20260505220832 | 88 | 189 | 1.7 | 6.1 | 0.00 | 0.00 | 0.00 | 66 | 1007.6 |
| 20260505215831 | 88 | 241 | 1.7 | 5.2 | 0.00 | 0.00 | 0.00 | 67 | 1007.6 |
| 20260505214831 | 88 | 167 | 0.9 | 7.8 | 0.00 | 0.00 | 0.00 | 66 | 1007.6 |
| 20260505213831 | 88 | 153 | 2.6 | 5.2 | 0.00 | 0.00 | 0.00 | 67 | 1007.8 |
| 20260505212831 | 88 | 248 | 1.7 | 7.0 | 0.00 | 0.00 | 0.00 | 66 | 1008.0 |
| 20260505211831 | 88 | 123 | 1.7 | 5.2 | 0.00 | 0.00 | 0.00 | 67 | 1008.1 |
| 20260505210831 | 87 | 217 | 0.0 | 5.2 | 0.00 | 0.00 | 0.00 | 68 | 1008.2 |
| 20260505205831 | 87 | 169 | 3.5 | 7.8 | 0.00 | 0.00 | 0.00 | 69 | 1008.3 |
| 20260505204831 | 87 | 134 | 4.3 | 6.1 | 0.00 | 0.00 | 0.00 | 70 | 1008.4 |
| 20260505203831 | 86 | 193 | 0.0 | 4.3 | 0.00 | 0.00 | 0.00 | 71 | 1008.6 |
| 20260505202831 | 85 | 215 | 0.0 | 4.3 | 0.00 | 0.00 | 0.00 | 71 | 1008.7 |
| 20260505201831 | 85 | 217 | 0.0 | 6.1 | 0.00 | 0.00 | 0.00 | 70 | 1008.9 |
| 20260505200830 | 85 | 243 | 1.7 | 6.1 | 0.00 | 0.00 | 0.00 | 70 | 1009.0 |
| 20260505195830 | 85 | 246 | 2.6 | 4.3 | 0.00 | 0.00 | 0.00 | 71 | 1009.2 |
| 20260505194831 | 85 | 345 | 0.9 | 7.0 | 0.00 | 0.00 | 0.00 | 72 | 1009.3 |
| 20260505193831 | 84 | 126 | 1.7 | 5.2 | 0.00 | 0.00 | 0.00 | 73 | 1009.3 |
| 20260505192830 | 84 | 240 | 2.6 | 4.3 | 0.00 | 0.00 | 0.00 | 73 | 1009.4 |
| 20260505191831 | 84 | 159 | 1.7 | 6.1 | 0.00 | 0.00 | 0.00 | 73 | 1009.4 |
| 20260505190830 | 83 | 239 | 0.0 | 7.0 | 0.00 | 0.00 | 0.00 | 74 | 1009.5 |
| 20260505185830 | 83 | 217 | 0.0 | 5.2 | 0.00 | 0.00 | 0.00 | 74 | 1009.5 |
| 20260505184830 | 83 | 296 | 0.9 | 4.3 | 0.00 | 0.00 | 0.00 | 76 | 1009.7 |
| 20260505183830 | 82 | 238 | 0.9 | 4.3 | 0.00 | 0.00 | 0.00 | 76 | 1009.8 |
| 20260505182830 | 82 | 108 | 0.9 | 3.5 | 0.00 | 0.00 | 0.00 | 76 | 1010.0 |
| 20260505181830 | 82 | 258 | 0.9 | 11.3 | 0.00 | 0.00 | 0.00 | 76 | 1009.8 |
| 20260505180830 | 82 | 181 | 1.7 | 6.1 | 0.00 | 0.00 | 0.00 | 77 | 1010.0 |
| 20260505175830 | 81 | 201 | 0.9 | 5.2 | 0.00 | 0.00 | 0.00 | 77 | 1010.1 |
| 20260505174830 | 81 | 144 | 0.9 | 7.8 | 0.00 | 0.00 | 0.00 | 77 | 1010.1 |
| 20260505173830 | 81 | 236 | 3.5 | 5.2 | 0.00 | 0.00 | 0.00 | 77 | 1010.1 |
| 20260505172839 | 81 | 163 | 0.9 | 5.2 | 0.00 | 0.00 | 0.00 | 79 | 1010.1 |
| 20260505171830 | 80 | 101 | 0.9 | 5.2 | 0.00 | 0.00 | 0.00 | 79 | 1010.0 |
| 20260505170830 | 80 | 202 | 1.7 | 5.2 | 0.00 | 0.00 | 0.00 | 80 | 1010.1 |
| 20260505165830 | 79 | 254 | 0.0 | 12.2 | 0.00 | 0.00 | 0.00 | 80 | 1010.2 |
| 20260505164830 | 79 | 228 | 1.7 | 6.1 | 0.00 | 0.00 | 0.00 | 80 | 1010.2 |
| 20260505163829 | 79 | 236 | 0.9 | 5.2 | 0.00 | 0.00 | 0.00 | 80 | 1010.1 |
| 20260505162829 | 79 | 123 | 1.7 | 5.2 | 0.00 | 0.00 | 0.00 | 81 | 1010.3 |
| 20260505161829 | 78 | 227 | 0.0 | 4.3 | 0.00 | 0.00 | 0.00 | 82 | 1010.3 |
| 20260505160829 | 78 | 263 | 0.0 | 3.5 | 0.00 | 0.00 | 0.00 | 82 | 1010.3 |
| 20260505152828 | 77 | 155 | 0.9 | 5.2 | 0.00 | 0.00 | 0.00 | 83 | 1010.1 |
| 20260505151828 | 76 | 162 | 1.7 | 5.2 | 0.00 | 0.00 | 0.00 | 83 | 1010.1 |
| 20260505150828 | 76 | 132 | 0.0 | 6.1 | 0.00 | 0.00 | 0.00 | 84 | 1010.2 |
| 20260505124827 | 73 | 196 | 0.0 | 3.5 | 0.00 | 0.00 | 0.00 | 86 | 1010.0 |
| 20260505123827 | 73 | 188 | 0.0 | 4.3 | 0.00 | 0.00 | 0.00 | 86 | 1009.5 |
| 20260505122827 | 72 | 204 | 0.0 | 7.0 | 0.00 | 0.00 | 0.00 | 86 | 1009.4 |
| 20260505121827 | 72 | 172 | 4.3 | 6.1 | 0.00 | 0.00 | 0.00 | 85 | 1009.4 |
| 20260505120827 | 72 | 96 | 1.7 | 3.5 | 0.00 | 0.00 | 0.00 | 85 | 1009.4 |
| 20260505115827 | 72 | 182 | 0.0 | 3.5 | 0.00 | 0.00 | 0.00 | 85 | 1009.4 |
| 20260505114827 | 72 | 180 | 0.0 | 3.5 | 0.00 | 0.00 | 0.00 | 85 | 1009.5 |
| 20260505113827 | 72 | 128 | 1.7 | 3.5 | 0.00 | 0.00 | 0.00 | 85 | 1009.2 |
| 20260505112826 | 72 | 140 | 0.0 | 4.3 | 0.00 | 0.00 | 0.00 | 85 | 1009.3 |
| 20260505111827 | 72 | 105 | 1.7 | 5.2 | 0.00 | 0.00 | 0.00 | 84 | 1009.3 |
| 20260505110826 | 72 | 158 | 0.0 | 4.3 | 0.00 | 0.00 | 0.00 | 84 | 1009.3 |
| 20260505101826 | 72 | 173 | 2.6 | 7.0 | 0.00 | 0.00 | 0.00 | 83 | 1009.4 |
| 20260505100826 | 72 | 106 | 2.6 | 4.3 | 0.00 | 0.00 | 0.00 | 83 | 1009.4 |
| 20260505095826 | 72 | 232 | 0.0 | 3.5 | 0.00 | 0.00 | 0.00 | 83 | 1009.7 |
| 20260505094826 | 72 | 219 | 0.0 | 3.5 | 0.00 | 0.00 | 0.00 | 83 | 1009.7 |
| 20260505093826 | 72 | 219 | 0.0 | 5.2 | 0.00 | 0.00 | 0.00 | 83 | 1009.5 |
| 20260505092825 | 72 | 132 | 1.7 | 6.1 | 0.00 | 0.00 | 0.00 | 83 | 1009.6 |
| 20260505091825 | 72 | 139 | 0.9 | 5.2 | 0.00 | 0.00 | 0.00 | 82 | 1009.7 |
| 20260505090825 | 72 | 122 | 2.6 | 4.3 | 0.00 | 0.00 | 0.00 | 82 | 1009.9 |
| 20260505085826 | 72 | 137 | 0.9 | 5.2 | 0.00 | 0.00 | 0.00 | 82 | 1009.9 |
| 20260505084825 | 72 | 159 | 1.7 | 4.3 | 0.00 | 0.00 | 0.00 | 82 | 1009.9 |
| 20260505083825 | 72 | 171 | 0.0 | 4.3 | 0.00 | 0.00 | 0.00 | 81 | 1010.1 |
| 20260505082825 | 72 | 196 | 0.0 | 3.5 | 0.00 | 0.00 | 0.00 | 81 | 1010.1 |
| 20260505081825 | 72 | 157 | 0.0 | 3.5 | 0.00 | 0.00 | 0.00 | 81 | 1010.3 |
| 20260505080825 | 72 | 194 | 0.0 | 4.3 | 0.00 | 0.00 | 0.00 | 81 | 1010.1 |
| 20260505075825 | 72 | 189 | 0.0 | 3.5 | 0.00 | 0.00 | 0.00 | 80 | 1010.3 |
| 20260505074825 | 72 | 118 | 0.0 | 6.1 | 0.00 | 0.00 | 0.00 | 80 | 1010.3 |
| 20260505073825 | 72 | 146 | 2.6 | 4.3 | 0.00 | 0.00 | 0.00 | 81 | 1010.3 |
| 20260505072824 | 72 | 86 | 0.0 | 4.3 | 0.00 | 0.00 | 0.00 | 80 | 1010.3 |
| 20260505071824 | 72 | 125 | 0.9 | 4.3 | 0.00 | 0.00 | 0.00 | 79 | 1010.4 |
| 20260505070824 | 72 | 206 | 0.0 | 3.5 | 0.00 | 0.00 | 0.00 | 79 | 1010.7 |
| 20260505065825 | 72 | 117 | 0.0 | 3.5 | 0.00 | 0.00 | 0.00 | 79 | 1010.7 |
| 20260505064825 | 72 | 117 | 1.7 | 4.3 | 0.00 | 0.00 | 0.00 | 78 | 1010.7 |
| 20260505063824 | 72 | 138 | 0.0 | 7.8 | 0.00 | 0.00 | 0.00 | 78 | 1010.8 |
| 20260505062824 | 72 | 178 | 0.9 | 5.2 | 0.00 | 0.00 | 0.00 | 78 | 1010.7 |
| 20260505061824 | 73 | 169 | 0.9 | 4.3 | 0.00 | 0.00 | 0.00 | 78 | 1010.8 |
| 20260505060824 | 73 | 186 | 0.0 | 5.2 | 0.00 | 0.00 | 0.00 | 78 | 1011.0 |
| 20260505055824 | 73 | 193 | 0.0 | 5.2 | 0.00 | 0.00 | 0.00 | 77 | 1011.1 |